TimeMST,TemperatureF,Dew PointF,Humidity,Sea Level PressureIn,VisibilityMPH,Wind Direction,Wind SpeedMPH,Gust SpeedMPH,PrecipitationIn,Events,Conditions,WindDirDegrees,DateUTC
12:53 AM,23.0,17.1,78,29.98,10.0,North,3.5,-,N/A,,Clear,10,2011-11-18 07:53:00
1:53 AM,21.9,17.1,82,29.97,10.0,East,3.5,-,N/A,,Clear,90,2011-11-18 08:53:00
2:53 AM,21.0,16.0,81,29.95,10.0,Calm,Calm,-,N/A,,Clear,0,2011-11-18 09:53:00
3:53 AM,21.9,17.1,82,29.95,10.0,East,4.6,-,N/A,,Clear,100,2011-11-18 10:53:00
4:53 AM,25.0,18.0,75,29.94,10.0,East,3.5,-,N/A,,Clear,90,2011-11-18 11:53:00
5:53 AM,25.0,18.0,75,29.97,10.0,Calm,Calm,-,N/A,,Clear,0,2011-11-18 12:53:00
6:53 AM,21.9,17.1,82,30.00,10.0,East,5.8,-,N/A,,Clear,80,2011-11-18 13:53:00
7:53 AM,26.1,19.9,78,30.01,10.0,Calm,Calm,-,N/A,,Clear,0,2011-11-18 14:53:00
8:53 AM,37.0,23.0,57,29.97,10.0,Calm,Calm,-,N/A,,Clear,0,2011-11-18 15:53:00
9:53 AM,45.0,21.0,39,29.92,10.0,Calm,Calm,-,N/A,,Clear,0,2011-11-18 16:53:00
10:53 AM,50.0,24.1,36,29.90,10.0,SW,9.2,-,N/A,,Clear,220,2011-11-18 17:53:00
11:53 AM,51.1,24.1,35,29.86,10.0,SW,12.7,-,N/A,,Clear,220,2011-11-18 18:53:00
12:53 PM,51.1,21.9,32,29.83,10.0,SW,11.5,-,N/A,,Clear,220,2011-11-18 19:53:00
1:53 PM,53.1,21.9,30,29.80,10.0,SW,8.1,-,N/A,,Clear,230,2011-11-18 20:53:00
2:53 PM,52.0,23.0,32,29.78,10.0,SSW,10.4,-,N/A,,Clear,210,2011-11-18 21:53:00
3:53 PM,52.0,23.0,32,29.77,10.0,South,3.5,-,N/A,,Clear,180,2011-11-18 22:53:00
5:53 PM,41.0,21.9,47,29.78,10.0,South,5.8,-,N/A,,Clear,190,2011-11-19 00:53:00
6:53 PM,33.1,21.0,61,29.80,10.0,NE,3.5,-,N/A,,Clear,40,2011-11-19 01:53:00
7:53 PM,30.9,21.0,67,29.78,10.0,Calm,Calm,-,N/A,,Clear,0,2011-11-19 02:53:00
8:53 PM,36.0,21.9,57,29.71,10.0,WSW,5.8,-,N/A,,Clear,240,2011-11-19 03:53:00
9:53 PM,33.1,21.9,64,29.70,10.0,ENE,4.6,-,N/A,,Clear,60,2011-11-19 04:53:00
10:53 PM,33.1,21.9,64,29.68,10.0,West,3.5,-,N/A,,Clear,280,2011-11-19 05:53:00
11:53 PM,30.9,21.0,67,29.68,10.0,South,8.1,-,N/A,,Clear,190,2011-11-19 06:53:00